Terug naar catalogus

STARLINK-33598

ActiefCommunicatieVLEO
NORAD 62771·PAYLOAD·🇺🇸 United States

Gelanceerd Jan 21, 2025 vanaf Vandenberg Space Force Base

Loading…

Volgende Passages (komende 24 uur)

TLE

VersSource: CelesTrak SupGP

Epoch: Sep 14, 2026, 23:03 UTC

1 62771C 25015P   26257.96090278 -.00049677  00000+0 -14676-2 0  2576
2 62771  53.1577 159.7181 0001305  79.5111 151.5595 15.34417349    11

Volg STARLINK-33598 in realtime met AllMySat

Download on the App Store